EW5603 Weather Reports


time (UTC)temp
F
wind
direction
speed
knots
gust
knots
rain 1hr
in
rain 24hr
in
rain mn
in
humidity
%
barometer
mb
20260504175420 68 270 5.2 10.4 0.00 0.00 0.00 38 1018.6
20260504175321 68 180 4.3 7.8 0.00 0.00 0.00 40 1018.7
20260504175222 68 270 6.1 11.3 0.00 0.00 0.00 37 1018.7
20260504175141 68 270 3.5 7.8 0.00 0.00 0.00 40 1018.7
20260504175021 68 270 4.3 10.4 0.00 0.00 0.00 44 1018.8
20260504174922 68 180 3.5 7.8 0.00 0.00 0.00 38 1018.7
20260504174821 68 203 4.3 9.6 0.00 0.00 0.00 40 1018.7
20260504174722 68 203 3.5 6.1 0.00 0.00 0.00 43 1018.8
20260504174621 68 203 4.3 9.6 0.00 0.00 0.00 38 1018.8
20260504174522 68 203 5.2 7.8 0.00 0.00 0.00 40 1018.8
20260504174421 68 248 3.5 10.4 0.00 0.00 0.00 41 1018.7
20260504174321 68 270 5.2 8.7 0.00 0.00 0.00 43 1018.8
20260504174221 68 180 1.7 3.5 0.00 0.00 0.00 40 1018.8
20260504174121 67 203 2.6 4.3 0.00 0.00 0.00 39 1018.8
20260504174021 67 203 2.6 4.3 0.00 0.00 0.00 41 1018.9
20260504173921 67 248 4.3 8.7 0.00 0.00 0.00 39 1018.8
20260504173821 67 270 4.3 7.8 0.00 0.00 0.00 42 1018.9
20260504173721 67 203 4.3 7.8 0.00 0.00 0.00 38 1018.8
20260504173621 67 225 4.3 6.1 0.00 0.00 0.00 40 1018.8
20260504173541 67 180 3.5 6.1 0.00 0.00 0.00 39 1018.9
20260504173421 67 270 4.3 8.7 0.00 0.00 0.00 40 1018.8
20260504173321 67 203 4.3 7.0 0.00 0.00 0.00 40 1018.8
20260504173242 67 225 6.1 8.7 0.00 0.00 0.00 39 1018.8
20260504173141 67 203 7.0 11.3 0.00 0.00 0.00 38 1018.9
20260504173041 67 270 7.0 11.3 0.00 0.00 0.00 40 1018.9
20260504172921 67 203 3.5 6.1 0.00 0.00 0.00 39 1018.8
20260504172821 67 248 3.5 7.8 0.00 0.00 0.00 40 1018.9
20260504172721 67 180 4.3 7.0 0.00 0.00 0.00 37 1018.9
20260504172621 67 203 7.0 16.5 0.00 0.00 0.00 38 1018.9
20260504172521 67 293 7.8 16.5 0.00 0.00 0.00 38 1018.9
20260504172421 67 180 7.0 9.6 0.00 0.00 0.00 36 1018.9
20260504172322 67 203 4.3 7.8 0.00 0.00 0.00 38 1018.9
20260504172221 67 248 3.5 7.0 0.00 0.00 0.00 43 1019.0
20260504172141 67 225 1.7 3.5 0.00 0.00 0.00 42 1018.9
20260504172021 67 248 3.5 7.0 0.00 0.00 0.00 39 1019.1
20260504171921 67 180 6.1 13.9 0.00 0.00 0.00 38 1018.9
20260504171822 67 203 5.2 7.8 0.00 0.00 0.00 38 1019.0
20260504171721 67 270 3.5 6.1 0.00 0.00 0.00 40 1019.0
20260504171621 67 225 2.6 4.3 0.00 0.00 0.00 40 1019.0
20260504171521 67 180 5.2 7.8 0.00 0.00 0.00 39 1019.0
20260504171421 67 225 6.1 13.9 0.00 0.00 0.00 37 1019.0
20260504171401 67 225 4.3 12.2 0.00 0.00 0.00 39 1019.0
20260504171221 67 180 3.5 7.0 0.00 0.00 0.00 41 1018.9
20260504171122 67 293 4.3 11.3 0.00 0.00 0.00 38 1019.1
20260504171022 67 225 4.3 7.8 0.00 0.00 0.00 37 1019.1
20260504170921 67 270 4.3 7.0 0.00 0.00 0.00 38 1019.0
20260504170841 67 180 6.1 8.7 0.00 0.00 0.00 38 1019.0
20260504170741 67 270 5.2 10.4 0.00 0.00 0.00 40 1019.1
20260504170621 67 203 4.3 7.8 0.00 0.00 0.00 41 1019.1
20260504170521 67 270 4.3 8.7 0.00 0.00 0.00 42 1019.0
20260504170442 67 270 6.1 14.8 0.00 0.00 0.00 39 1019.0
20260504170321 67 270 6.1 12.2 0.00 0.00 0.00 37 1019.0
20260504170221 67 248 7.0 14.8 0.00 0.00 0.00 38 1019.0
20260504170123 67 270 6.1 8.7 0.00 0.00 0.00 42 1019.1
20260504160441 65 203 1.7 3.5 0.00 0.00 0.00 43 1019.8
20260504160321 65 180 3.5 6.1 0.00 0.00 0.00 40 1019.8
20260504160221 65 180 6.1 11.3 0.00 0.00 0.00 40 1019.8
20260504160121 65 248 2.6 6.1 0.00 0.00 0.00 42 1019.8
20260504151123 63 203 3.5 7.8 0.00 0.00 0.00 45 1020.5
20260504151040 63 203 1.7 3.5 0.00 0.00 0.00 48 1020.5
20260504150921 63 203 1.7 3.5 0.00 0.00 0.00 49 1020.5
20260504150822 63 270 4.3 8.7 0.00 0.00 0.00 46 1020.6
20260504150721 63 225 5.2 10.4 0.00 0.00 0.00 46 1020.6
20260504150622 63 180 5.2 7.0 0.00 0.00 0.00 44 1020.5
20260504150521 63 203 2.6 6.1 0.00 0.00 0.00 47 1020.6
20260504150441 63 203 3.5 7.8 0.00 0.00 0.00 44 1020.6
20260504150321 63 203 4.3 7.0 0.00 0.00 0.00 44 1020.5
20260504150220 63 180 3.5 4.3 0.00 0.00 0.00 47 1020.5
20260504150120 63 203 2.6 13.0 0.00 0.00 0.00 49 1020.6
20260504141322 62 180 2.6 6.1 0.00 0.00 0.00 48 1020.7
20260504141304 61 203 1.7 5.2 0.00 0.00 0.00 51 1020.7
20260504141123 61 203 1.7 2.6 0.00 0.00 0.00 48 1020.8
20260504141022 61 225 1.7 3.5 0.00 0.00 0.00 48 1020.8
20260504140922 61 225 2.6 4.3 0.00 0.00 0.00 47 1020.8
20260504140841 61 180 3.5 6.1 0.00 0.00 0.00 51 1020.8
20260504140721 61 248 1.7 3.5 0.00 0.00 0.00 46 1020.8
20260504140621 61 203 4.3 7.0 0.00 0.00 0.00 49 1020.9
20260504140601 61 248 2.6 4.3 0.00 0.00 0.00 51 1020.9
20260504140320 61 158 1.7 4.3 0.00 0.00 0.00 49 1020.9
20260504140222 61 248 4.3 7.8 0.00 0.00 0.00 49 1020.9
20260504140201 61 180 2.6 4.3 0.00 0.00 0.00 50 1020.9
20260504130822 60 203 4.3 7.8 0.00 0.00 0.00 48 1021.2
20260504130723 60 270 5.2 6.1 0.00 0.00 0.00 51 1021.2
20260504130622 60 270 3.5 7.0 0.00 0.00 0.00 50 1021.3
20260504130523 59 270 1.7 3.5 0.00 0.00 0.00 50 1021.3
20260504130420 59 270 3.5 7.8 0.00 0.00 0.00 49 1021.3
20260504130341 59 248 2.6 6.1 0.00 0.00 0.00 49 1021.3
20260504130242 59 180 1.7 3.5 0.00 0.00 0.00 50 1021.3
20260504130143 59 248 1.7 5.2 0.00 0.00 0.00 50 1021.3
20260504120222 54 248 2.6 5.2 0.00 0.00 0.00 57 1021.6
20260504120123 54 225 1.7 7.0 0.00 0.00 0.00 58 1021.6
20260504110622 47 0.0 1.7 0.00 0.00 0.00 68 1021.6
20260504110543 46 270 0.9 1.7 0.00 0.00 0.00 69 1021.5
20260504110422 46 0.0 0.9 0.00 0.00 0.00 69 1021.4
20260504110322 46 270 0.9 1.7 0.00 0.00 0.00 68 1021.4
20260504110222 46 270 0.9 1.7 0.00 0.00 0.00 68 1021.4
20260504110142 46 0.0 0.0 0.00 0.00 0.00 68 1021.3
20260504100522 40 0.0 0.0 0.00 0.00 0.00 79 1021.1
20260504100424 40 0.0 0.0 0.00 0.00 0.00 79 1021.1
20260504100323 40 0.0 0.0 0.00 0.00 0.00 79 1021.1
20260504100244 40 0.0 0.0 0.00 0.00 0.00 79 1021.1
20260504100123 40 0.0 0.0 0.00 0.00 0.00 79 1021.1
20260504090121 40 0.0 0.0 0.00 0.00 0.00 80 1020.9
20260504081925 39 0.0 0.0 0.00 0.00 0.00 83 1020.5
20260504081843 39 0.0 0.0 0.00 0.00 0.00 82 1020.5
20260504081723 39 0.0 0.0 0.00 0.00 0.00 82 1020.5
20260504081624 39 0.0 0.0 0.00 0.00 0.00 82 1020.5
20260504081523 39 0.0 0.0 0.00 0.00 0.00 81 1020.5
20260504081422 39 0.0 0.0 0.00 0.00 0.00 80 1020.5
20260504081322 39 0.0 0.0 0.00 0.00 0.00 79 1020.4
20260504081221 39 0.0 0.0 0.00 0.00 0.00 79 1020.5
20260504081142 39 0.0 0.0 0.00 0.00 0.00 79 1020.5
20260504081021 39 0.0 0.0 0.00 0.00 0.00 78 1020.5
20260504080921 39 0.0 0.0 0.00 0.00 0.00 78 1020.5
20260504080821 40 0.0 0.0 0.00 0.00 0.00 78 1020.5
20260504080721 40 0.0 0.0 0.00 0.00 0.00 78 1020.5
20260504080621 40 0.0 0.0 0.00 0.00 0.00 78 1020.5
20260504080522 40 0.0 0.0 0.00 0.00 0.00 78 1020.4
20260504080421 40 0.0 0.0 0.00 0.00 0.00 78 1020.4
20260504080322 40 0.0 0.0 0.00 0.00 0.00 78 1020.5
20260504080222 40 0.0 0.0 0.00 0.00 0.00 78 1020.4
20260504080122 40 0.0 0.0 0.00 0.00 0.00 78 1020.4
20260504070321 38 0.0 0.0 0.00 0.00 0.00 83 1020.2
20260504070222 38 0.0 0.0 0.00 0.00 0.00 83 1020.2
20260504070121 38 0.0 0.0 0.00 0.00 0.00 83 1020.1
20260504060221 39 0.0 0.0 0.00 0.00 0.00 80 1020.1
20260504060121 39 0.0 0.0 0.00 0.00 0.00 80 1020.0
20260504050741 40 0.0 0.0 0.00 0.00 0.00 76 1020.0
20260504050621 40 0.0 0.0 0.00 0.00 0.00 75 1020.0
20260504050524 40 0.0 0.0 0.00 0.00 0.00 76 1020.0
20260504050421 40 0.0 0.0 0.00 0.00 0.00 76 1020.0
20260504050342 41 0.0 0.0 0.00 0.00 0.00 76 1019.9
20260504050121 41 0.0 0.0 0.00 0.00 0.00 76 1020.0
20260504050021 41 0.0 0.0 0.00 0.00 0.00 77 1020.0
20260504045921 41 0.0 0.0 0.00 0.00 0.00 77 1020.0
20260504045822 41 0.0 0.0 0.00 0.00 0.00 77 1020.0
20260504045721 41 0.0 0.0 0.00 0.00 0.00 77 1020.0
20260504045641 41 0.0 0.0 0.00 0.00 0.00 78 1020.0
20260504045521 41 0.0 0.0 0.00 0.00 0.00 77 1020.0
20260504045421 41 0.0 0.0 0.00 0.00 0.00 77 1020.0
20260504045321 41 0.0 0.0 0.00 0.00 0.00 76 1020.0
20260504045301 41 0.0 0.0 0.00 0.00 0.00 76 1020.0
20260504045121 41 0.0 0.0 0.00 0.00 0.00 76 1020.0
20260504045023 41 0.0 0.0 0.00 0.00 0.00 76 1020.0
20260504044923 41 0.0 0.0 0.00 0.00 0.00 76 1020.0
20260504044822 41 0.0 0.0 0.00 0.00 0.00 76 1020.0
20260504044723 41 0.0 0.0 0.00 0.00 0.00 76 1019.9
20260504044622 41 0.0 0.0 0.00 0.00 0.00 75 1020.0
20260504044521 41 0.0 0.0 0.00 0.00 0.00 76 1019.9
20260504044422 41 0.0 0.0 0.00 0.00 0.00 76 1019.9
20260504044321 41 0.0 0.0 0.00 0.00 0.00 76 1020.0
20260504044221 41 0.0 0.0 0.00 0.00 0.00 76 1019.9
20260504044141 41 0.0 0.0 0.00 0.00 0.00 75 1019.8
20260504044022 41 0.0 0.0 0.00 0.00 0.00 75 1019.9
20260504043936 41 0.0 0.0 0.00 0.00 0.00 76 1019.9
20260504043823 41 0.0 0.0 0.00 0.00 0.00 76 1020.0
20260504043721 41 0.0 0.0 0.00 0.00 0.00 76 1020.0
20260504043621 41 0.0 0.0 0.00 0.00 0.00 76 1020.0
20260504043521 41 0.0 0.0 0.00 0.00 0.00 76 1020.0
20260504043441 41 0.0 0.0 0.00 0.00 0.00 76 1019.9
20260504043321 41 0.0 0.0 0.00 0.00 0.00 76 1019.9
20260504043221 41 0.0 0.0 0.00 0.00 0.00 76 1020.0
20260504043121 41 0.0 0.0 0.00 0.00 0.00 76 1019.9
20260504043021 41 0.0 0.0 0.00 0.00 0.00 75 1020.0
20260504042921 41 0.0 0.9 0.00 0.00 0.00 75 1019.9
20260504042841 41 0.0 0.0 0.00 0.00 0.00 74 1020.0
20260504042721 41 0.0 0.9 0.00 0.00 0.00 74 1019.9
20260504042641 41 0.0 0.0 0.00 0.00 0.00 74 1020.0
20260504042521 41 0.0 0.0 0.00 0.00 0.00 74 1020.0
20260504042421 41 0.0 0.0 0.00 0.00 0.00 74 1020.0
20260504042321 41 0.0 0.0 0.00 0.00 0.00 74 1020.0
20260504042221 41 0.0 0.0 0.00 0.00 0.00 74 1020.0
20260504042141 41 0.0 0.0 0.00 0.00 0.00 74 1020.0
20260504042021 41 0.0 0.0 0.00 0.00 0.00 74 1019.9
20260504041941 41 0.0 0.0 0.00 0.00 0.00 73 1020.0
20260504041822 41 0.0 0.0 0.00 0.00 0.00 73 1019.9
20260504041721 41 0.0 0.0 0.00 0.00 0.00 73 1019.9
20260504041641 41 0.0 0.0 0.00 0.00 0.00 73 1019.9
20260504041521 41 0.0 0.0 0.00 0.00 0.00 73 1019.9
20260504041421 41 0.0 0.0 0.00 0.00 0.00 73 1020.0
20260504041321 41 0.0 0.0 0.00 0.00 0.00 73 1020.0
20260504041221 41 0.0 0.0 0.00 0.00 0.00 73 1019.9
20260504041121 41 0.0 0.0 0.00 0.00 0.00 73 1019.9
20260504041021 41 0.0 0.0 0.00 0.00 0.00 73 1019.9
20260504040923 41 0.0 0.0 0.00 0.00 0.00 72 1019.9
20260504040823 41 0.0 0.0 0.00 0.00 0.00 72 1019.9
20260504040723 41 0.0 0.0 0.00 0.00 0.00 71 1020.0
20260504040624 41 0.0 0.0 0.00 0.00 0.00 72 1020.0
20260504040522 41 0.0 0.0 0.00 0.00 0.00 71 1019.9
20260504040422 41 0.0 0.0 0.00 0.00 0.00 71 1019.9
20260504040343 42 0.0 0.0 0.00 0.00 0.00 71 1019.9
20260504040221 42 0.0 0.0 0.00 0.00 0.00 70 1019.9
20260504040122 42 0.0 0.0 0.00 0.00 0.00 70 1019.9
20260504040020 42 0.0 0.0 0.00 0.00 0.00 70 1019.9
20260504035921 42 0.0 0.0 0.00 0.00 0.00 70 1019.8
20260504035821 42 0.0 0.0 0.00 0.00 0.00 70 1019.8
20260504035721 42 0.0 0.0 0.00 0.00 0.00 69 1019.8
20260504035621 42 0.0 0.0 0.00 0.00 0.00 69 1019.8
20260504035521 42 0.0 0.0 0.00 0.00 0.00 69 1019.8
20260504035441 42 0.0 0.0 0.00 0.00 0.00 69 1019.8
20260504035323 42 0.0 0.0 0.00 0.00 0.00 69 1019.8
20260504035223 42 0.0 0.0 0.00 0.00 0.00 69 1019.8
20260504035141 42 0.0 0.0 0.00 0.00 0.00 69 1019.8
20260504035021 42 0.0 0.0 0.00 0.00 0.00 69 1019.8
20260504034920 42 0.0 0.0 0.00 0.00 0.00 69 1019.8
20260504034820 42 0.0 0.0 0.00 0.00 0.00 69 1019.8
20260504034721 42 0.0 0.0 0.00 0.00 0.00 69 1019.8
20260504034642 42 0.0 0.0 0.00 0.00 0.00 69 1019.8
20260504034601 42 0.0 0.0 0.00 0.00 0.00 69 1019.8
20260504034422 42 0.0 0.0 0.00 0.00 0.00 69 1019.8
20260504034341 42 0.0 0.0 0.00 0.00 0.00 69 1019.8
20260504034221 43 0.0 0.0 0.00 0.00 0.00 69 1019.8
20260504034121 43 0.0 0.0 0.00 0.00 0.00 69 1019.8
20260504034021 43 0.0 0.0 0.00 0.00 0.00 69 1019.8
20260504033921 43 0.0 0.0 0.00 0.00 0.00 70 1019.8
20260504033821 43 0.0 0.0 0.00 0.00 0.00 70 1019.8
20260504033721 43 0.0 0.0 0.00 0.00 0.00 70 1019.8
20260504033621 43 0.0 0.0 0.00 0.00 0.00 70 1019.8
20260504033520 43 0.0 0.0 0.00 0.00 0.00 70 1019.7
20260504033423 43 0.0 0.0 0.00 0.00 0.00 71 1019.8
20260504033321 43 0.0 0.0 0.00 0.00 0.00 71 1019.8
20260504033221 43 0.0 0.0 0.00 0.00 0.00 71 1019.7
20260504033121 43 0.0 0.0 0.00 0.00 0.00 71 1019.7
20260504033021 43 0.0 0.0 0.00 0.00 0.00 71 1019.7
20260504032921 43 0.0 0.0 0.00 0.00 0.00 71 1019.7
20260504032842 43 0.0 0.0 0.00 0.00 0.00 71 1019.6
20260504032720 43 0.0 0.0 0.00 0.00 0.00 70 1019.7
20260504032621 43 0.0 0.0 0.00 0.00 0.00 70 1019.7
20260504032520 43 0.0 0.0 0.00 0.00 0.00 70 1019.6
20260504032421 43 0.0 0.0 0.00 0.00 0.00 69 1019.7
20260504032321 43 0.0 0.0 0.00 0.00 0.00 69 1019.7
20260504032221 43 0.0 0.0 0.00 0.00 0.00 68 1019.6
20260504032141 43 0.0 0.0 0.00 0.00 0.00 68 1019.6
20260504032021 43 0.0 0.0 0.00 0.00 0.00 67 1019.6
20260504031921 43 0.0 0.0 0.00 0.00 0.00 66 1019.6
20260504031821 43 0.0 0.0 0.00 0.00 0.00 66 1019.6
20260504031741 43 0.0 0.0 0.00 0.00 0.00 66 1019.6
20260504031621 43 0.0 0.0 0.00 0.00 0.00 66 1019.6
20260504031541 43 0.0 0.0 0.00 0.00 0.00 66 1019.6
20260504031441 43 0.0 0.0 0.00 0.00 0.00 66 1019.6
20260504031341 43 0.0 0.0 0.00 0.00 0.00 66 1019.6
20260504031222 43 0.0 0.0 0.00 0.00 0.00 66 1019.7
20260504031121 43 0.0 0.0 0.00 0.00 0.00 66 1019.6
20260504031021 43 0.0 0.0 0.00 0.00 0.00 65 1019.6
20260504030921 43 0.0 0.0 0.00 0.00 0.00 65 1019.6
20260504030842 43 0.0 0.0 0.00 0.00 0.00 64 1019.7
20260504030721 43 0.0 0.0 0.00 0.00 0.00 64 1019.6
20260504030621 43 0.0 0.0 0.00 0.00 0.00 64 1019.6
20260504030522 43 0.0 0.0 0.00 0.00 0.00 65 1019.6
20260504030423 43 0.0 0.0 0.00 0.00 0.00 64 1019.6
20260504030324 44 0.0 0.0 0.00 0.00 0.00 65 1019.6
20260504030222 44 0.0 0.0 0.00 0.00 0.00 64 1019.6
20260504030143 44 0.0 0.0 0.00 0.00 0.00 65 1019.6
20260504030022 44 0.0 0.0 0.00 0.00 0.00 65 1019.6
20260504025921 44 0.0 0.0 0.00 0.00 0.00 65 1019.6
20260504025821 44 0.0 0.0 0.00 0.00 0.00 64 1019.6
20260504025721 44 0.0 0.0 0.00 0.00 0.00 64 1019.6
20260504025621 44 0.0 0.0 0.00 0.00 0.00 64 1019.6
20260504025602 44 0.0 0.0 0.00 0.00 0.00 64 1019.6
20260504025421 44 0.0 0.0 0.00 0.00 0.00 64 1019.6
20260504025321 44 0.0 0.0 0.00 0.00 0.00 66 1019.6
20260504025221 44 0.0 0.0 0.00 0.00 0.00 66 1019.6
20260504025121 44 0.0 0.0 0.00 0.00 0.00 66 1019.6
20260504025021 44 0.0 0.0 0.00 0.00 0.00 65 1019.7
20260504024921 44 0.0 0.0 0.00 0.00 0.00 64 1019.7
20260504024822 44 0.0 0.0 0.00 0.00 0.00 64 1019.6
20260504024721 44 0.0 0.0 0.00 0.00 0.00 64 1019.7
20260504024621 44 0.0 0.0 0.00 0.00 0.00 63 1019.7
20260504024521 44 0.0 0.0 0.00 0.00 0.00 63 1019.7
20260504024420 44 0.0 0.0 0.00 0.00 0.00 65 1019.6
20260504024341 44 0.0 0.0 0.00 0.00 0.00 65 1019.6
20260504024221 45 0.0 0.0 0.00 0.00 0.00 65 1019.7
20260504024121 45 0.0 0.0 0.00 0.00 0.00 65 1019.6
20260504024023 45 0.0 0.0 0.00 0.00 0.00 65 1019.7
20260504023921 45 0.0 0.0 0.00 0.00 0.00 65 1019.7
20260504023821 45 0.0 0.0 0.00 0.00 0.00 65 1019.7
20260504023741 45 0.0 0.0 0.00 0.00 0.00 65 1019.7
20260504023622 45 0.0 0.0 0.00 0.00 0.00 64 1019.7
20260504023521 45 0.0 0.0 0.00 0.00 0.00 65 1019.7
20260504023441 45 0.0 0.0 0.00 0.00 0.00 65 1019.8
20260504023321 45 0.0 0.0 0.00 0.00 0.00 65 1019.7
20260504023221 45 0.0 0.0 0.00 0.00 0.00 65 1019.7
20260504023121 45 0.0 0.0 0.00 0.00 0.00 64 1019.7
20260504023021 45 0.0 0.0 0.00 0.00 0.00 64 1019.7
20260504022920 45 0.0 0.0 0.00 0.00 0.00 63 1019.7
20260504022820 45 0.0 0.0 0.00 0.00 0.00 63 1019.7
20260504022721 45 0.0 0.0 0.00 0.00 0.00 63 1019.7
20260504022621 45 0.0 0.0 0.00 0.00 0.00 62 1019.7
20260504022521 45 0.0 0.0 0.00 0.00 0.00 62 1019.7
20260504022421 45 0.0 0.0 0.00 0.00 0.00 62 1019.7
20260504022321 45 0.0 0.0 0.00 0.00 0.00 62 1019.7
20260504022221 45 0.0 0.0 0.00 0.00 0.00 62 1019.7
20260504022121 46 0.0 0.0 0.00 0.00 0.00 62 1019.7
20260504022043 46 0.0 0.0 0.00 0.00 0.00 61 1019.7
20260504021920 46 0.0 0.0 0.00 0.00 0.00 61 1019.7
20260504021842 46 0.0 0.0 0.00 0.00 0.00 62 1019.7
20260504021723 46 0.0 0.0 0.00 0.00 0.00 62 1019.7
20260504021623 46 0.0 0.0 0.00 0.00 0.00 62 1019.7
20260504021523 46 0.0 0.0 0.00 0.00 0.00 62 1019.7
20260504021421 46 0.0 0.0 0.00 0.00 0.00 62 1019.7
20260504021322 46 0.0 0.0 0.00 0.00 0.00 62 1019.8
20260504021241 46 0.0 0.0 0.00 0.00 0.00 62 1019.7
20260504021121 46 0.0 0.0 0.00 0.00 0.00 61 1019.7
20260504021020 46 0.0 0.0 0.00 0.00 0.00 61 1019.7
20260504020922 46 0.0 0.0 0.00 0.00 0.00 60 1019.7
20260504020821 46 0.0 0.0 0.00 0.00 0.00 60 1019.7
20260504020721 46 0.0 0.0 0.00 0.00 0.00 59 1019.7
20260504020621 47 0.0 0.0 0.00 0.00 0.00 58 1019.7
20260504020521 47 0.0 0.0 0.00 0.00 0.00 57 1019.7
20260504020421 47 0.0 0.0 0.00 0.00 0.00 57 1019.7
20260504020320 47 0.0 0.0 0.00 0.00 0.00 58 1019.7
20260504020222 47 0.0 0.0 0.00 0.00 0.00 58 1019.7
20260504020143 47 0.0 0.0 0.00 0.00 0.00 58 1019.7
20260504020023 47 0.0 0.0 0.00 0.00 0.00 56 1019.7
20260504015924 47 0.0 0.0 0.00 0.00 0.00 55 1019.7
20260504015821 47 0.0 0.0 0.00 0.00 0.00 56 1019.6
20260504015721 47 0.0 0.0 0.00 0.00 0.00 56 1019.6
20260504015621 47 0.0 0.0 0.00 0.00 0.00 56 1019.6
20260504015521 47 0.0 0.0 0.00 0.00 0.00 56 1019.6
20260504015421 47 0.0 0.0 0.00 0.00 0.00 56 1019.6
20260504015321 47 0.0 0.0 0.00 0.00 0.00 56 1019.6
20260504015242 47 0.0 0.0 0.00 0.00 0.00 56 1019.6
20260504015120 47 0.0 0.0 0.00 0.00 0.00 56 1019.5
20260504015023 47 0.0 0.0 0.00 0.00 0.00 56 1019.6
20260504014923 47 0.0 0.0 0.00 0.00 0.00 55 1019.5
20260504014822 47 0.0 0.0 0.00 0.00 0.00 55 1019.6
20260504014722 47 0.0 0.0 0.00 0.00 0.00 54 1019.5
20260504014622 47 0.0 0.0 0.00 0.00 0.00 54 1019.5
20260504014520 47 0.0 0.0 0.00 0.00 0.00 55 1019.5
20260504014422 47 0.0 0.0 0.00 0.00 0.00 55 1019.5
20260504014323 47 0.0 0.0 0.00 0.00 0.00 56 1019.6
20260504014223 47 0.0 0.0 0.00 0.00 0.00 57 1019.6
20260504014122 47 0.0 0.0 0.00 0.00 0.00 57 1019.5
20260504014041 47 0.0 0.0 0.00 0.00 0.00 56 1019.5
20260504013921 47 0.0 0.0 0.00 0.00 0.00 56 1019.5
20260504013821 48 0.0 0.0 0.00 0.00 0.00 56 1019.5
20260504013741 48 0.0 0.0 0.00 0.00 0.00 54 1019.5
20260504013621 48 0.0 0.0 0.00 0.00 0.00 53 1019.5
20260504013521 48 0.0 0.0 0.00 0.00 0.00 54 1019.5
20260504013420 48 0.0 0.0 0.00 0.00 0.00 55 1019.5
20260504013322 48 0.0 0.0 0.00 0.00 0.00 55 1019.5
20260504013222 48 0.0 0.0 0.00 0.00 0.00 55 1019.4
20260504013143 48 0.0 0.0 0.00 0.00 0.00 54 1019.5
20260504013023 48 0.0 0.0 0.00 0.00 0.00 55 1019.4
20260504012923 48 0.0 0.0 0.00 0.00 0.00 55 1019.5
20260504012821 48 0.0 0.0 0.00 0.00 0.00 55 1019.4
20260504012721 48 0.0 0.0 0.00 0.00 0.00 56 1019.4
20260504012640 48 0.0 0.0 0.00 0.00 0.00 56 1019.4
20260504012520 48 0.0 0.0 0.00 0.00 0.00 56 1019.3
20260504012442 48 0.0 0.0 0.00 0.00 0.00 56 1019.3
20260504012322 48 0.0 0.0 0.00 0.00 0.00 56 1019.3
20260504012223 48 0.0 0.0 0.00 0.00 0.00 55 1019.3
20260504012123 48 0.0 0.0 0.00 0.00 0.00 55 1019.2
20260504012025 48 0.0 0.0 0.00 0.00 0.00 55 1019.3
20260504011925 48 0.0 0.0 0.00 0.00 0.00 55 1019.2
20260504011723 49 0.0 0.0 0.00 0.00 0.00 55 1019.3
20260504011626 49 0.0 0.0 0.00 0.00 0.00 55 1019.3
20260504011521 49 0.0 0.0 0.00 0.00 0.00 56 1019.2
20260504011421 49 0.0 0.0 0.00 0.00 0.00 55 1019.2
20260504011323 49 0.0 0.0 0.00 0.00 0.00 55 1019.2
20260504011223 49 0.0 0.0 0.00 0.00 0.00 55 1019.2
20260504011122 49 0.0 0.0 0.00 0.00 0.00 56 1019.2
20260504011022 49 0.0 0.0 0.00 0.00 0.00 55 1019.1
20260504010922 49 0.0 0.0 0.00 0.00 0.00 54 1019.1
20260504010822 49 0.0 0.0 0.00 0.00 0.00 55 1019.0
20260504010741 49 0.0 0.0 0.00 0.00 0.00 56 1019.0
20260504010621 49 0.0 0.0 0.00 0.00 0.00 55 1019.0
20260504010520 49 0.0 0.0 0.00 0.00 0.00 55 1019.0
20260504010440 49 0.0 0.0 0.00 0.00 0.00 55 1019.0
20260504010320 49 0.0 0.0 0.00 0.00 0.00 53 1019.0
20260504010222 49 0.0 0.0 0.00 0.00 0.00 54 1018.9
20260504010122 49 0.0 0.0 0.00 0.00 0.00 51 1018.9
20260504010022 49 0.0 0.0 0.00 0.00 0.00 52 1018.9
20260504005922 49 0.0 0.0 0.00 0.00 0.00 53 1018.9
20260504005822 49 0.0 0.0 0.00 0.00 0.00 55 1018.9
20260504005722 49 0.0 0.0 0.00 0.00 0.00 54 1018.9
20260504005623 49 0.0 0.0 0.00 0.00 0.00 53 1018.8
20260504005541 49 0.0 0.0 0.00 0.00 0.00 51 1018.8
20260504005423 49 0.0 0.0 0.00 0.00 0.00 52 1018.9
20260504005341 49 0.0 0.0 0.00 0.00 0.00 53 1018.8
20260504005221 49 0.0 0.0 0.00 0.00 0.00 53 1018.8
20260504005123 49 0.0 0.0 0.00 0.00 0.00 54 1018.8
20260504005023 49 0.0 0.0 0.00 0.00 0.00 54 1018.8
20260504005002 49 0.0 0.0 0.00 0.00 0.00 53 1018.8
20260504004822 49 0.0 0.0 0.00 0.00 0.00 52 1018.8
20260504004802 49 0.0 0.0 0.00 0.00 0.00 52 1018.8
20260504004623 49 0.0 0.0 0.00 0.00 0.00 51 1018.7
20260504004522 50 0.0 0.0 0.00 0.00 0.00 52 1018.7
20260504004443 50 0.0 0.0 0.00 0.00 0.00 52 1018.7
20260504004342 50 0.0 0.0 0.00 0.00 0.00 52 1018.7
20260504004221 50 0.0 0.0 0.00 0.00 0.00 52 1018.7
20260504004123 50 0.0 0.0 0.00 0.00 0.00 52 1018.6
20260504004023 50 0.0 0.0 0.00 0.00 0.00 51 1018.6
20260504003924 50 0.0 0.0 0.00 0.00 0.00 50 1018.7
20260504003823 50 0.0 0.0 0.00 0.00 0.00 50 1018.6
20260504003722 50 0.0 0.0 0.00 0.00 0.00 52 1018.7
20260504003642 50 0.0 0.0 0.00 0.00 0.00 52 1018.6
20260504003522 50 0.0 0.0 0.00 0.00 0.00 51 1018.6
20260504003422 50 0.0 0.0 0.00 0.00 0.00 51 1018.6
20260504003323 50 0.0 0.0 0.00 0.00 0.00 52 1018.6
20260504003221 50 0.0 0.0 0.00 0.00 0.00 52 1018.6
20260504003122 50 0.0 0.0 0.00 0.00 0.00 50 1018.5
20260504003021 50 0.0 0.0 0.00 0.00 0.00 49 1018.6
20260504002926 50 0.0 0.0 0.00 0.00 0.00 48 1018.6
20260504002822 50 0.0 0.0 0.00 0.00 0.00 49 1018.6
20260504002723 50 0.0 0.0 0.00 0.00 0.00 48 1018.5
20260504002622 50 0.0 0.0 0.00 0.00 0.00 48 1018.5
20260504002541 50 0.0 0.0 0.00 0.00 0.00 48 1018.5
20260504002425 50 0.0 0.0 0.00 0.00 0.00 49 1018.5
20260504002322 50 0.0 0.0 0.00 0.00 0.00 49 1018.5
20260504002222 50 0.0 0.0 0.00 0.00 0.00 49 1018.5
20260504002121 50 0.0 0.0 0.00 0.00 0.00 49 1018.5
20260504002020 50 0.0 0.0 0.00 0.00 0.00 50 1018.5
20260504001921 50 0.0 0.0 0.00 0.00 0.00 49 1018.5
20260504001823 50 0.0 0.0 0.00 0.00 0.00 49 1018.4
20260504001723 50 0.0 0.0 0.00 0.00 0.00 48 1018.5
20260504001623 50 0.0 0.0 0.00 0.00 0.00 49 1018.4
20260504001522 50 0.0 0.0 0.00 0.00 0.00 49 1018.4
20260504001424 50 0.0 0.0 0.00 0.00 0.00 49 1018.4
20260504001322 50 0.0 0.0 0.00 0.00 0.00 49 1018.4
20260504001222 50 0.0 0.0 0.00 0.00 0.00 49 1018.4
20260504001122 51 0.0 0.0 0.00 0.00 0.00 49 1018.3
20260504001022 51 0.0 0.0 0.00 0.00 0.00 48 1018.3
20260504000942 51 0.0 0.0 0.00 0.00 0.00 47 1018.3
20260504000823 51 0.0 0.0 0.00 0.00 0.00 47 1018.2
20260504000724 51 0.0 0.0 0.00 0.00 0.00 46 1018.3
20260504000624 51 0.0 0.0 0.00 0.00 0.00 45 1018.3
20260504000523 51 0.0 0.0 0.00 0.00 0.00 45 1018.2
20260504000440 51 0.0 0.0 0.00 0.00 0.00 45 1018.2
20260504000323 51 0.0 0.0 0.00 0.00 0.00 46 1018.2
20260504000221 52 0.0 0.0 0.00 0.00 0.00 46 1018.2
20260504000123 52 0.0 0.0 0.00 0.00 0.00 45 1018.2
20260504000023 52 0.0 0.0 0.00 0.00 0.00 45 1018.1
20260503235923 52 0.0 0.0 0.00 0.00 0.00 45 1018.1
20260503235822 52 0.0 0.0 0.00 0.00 0.00 43 1018.1
20260503235722 52 0.0 0.0 0.00 0.00 0.00 44 1018.1
20260503235622 52 0.0 0.0 0.00 0.00 0.00 43 1018.1
20260503235543 52 0.0 0.0 0.00 0.00 0.00 44 1018.1
20260503235422 52 0.0 0.0 0.00 0.00 0.00 44 1018.0
20260503235322 53 0.0 0.0 0.00 0.00 0.00 43 1018.0
20260503235223 53 0.0 0.0 0.00 0.00 0.00 42 1018.0
20260503235122 53 0.0 0.0 0.00 0.00 0.00 39 1018.0
20260503235021 53 0.0 0.0 0.00 0.00 0.00 40 1018.0
20260503234942 53 0.0 0.0 0.00 0.00 0.00 40 1018.0
20260503234822 53 0.0 0.0 0.00 0.00 0.00 39 1018.0
20260503234722 53 0.0 0.0 0.00 0.00 0.00 38 1017.9
20260503234622 54 0.0 0.0 0.00 0.00 0.00 37 1017.9
20260503234522 54 0.0 0.0 0.00 0.00 0.00 39 1017.9
20260503234423 54 0.0 0.0 0.00 0.00 0.00 38 1017.9
20260503234322 54 0.0 0.0 0.00 0.00 0.00 38 1017.9
20260503234222 54 0.0 0.0 0.00 0.00 0.00 36 1017.9
20260503234122 54 0.0 0.0 0.00 0.00 0.00 35 1017.9
20260503234023 54 0.0 0.0 0.00 0.00 0.00 36 1017.9
20260503233922 54 0.0 0.0 0.00 0.00 0.00 36 1017.9
20260503233822 54 0.0 0.0 0.00 0.00 0.00 35 1017.8
20260503233724 55 0.0 0.0 0.00 0.00 0.00 36 1017.8
20260503233624 55 0.0 0.0 0.00 0.00 0.00 36 1017.8
20260503233524 55 0.0 0.0 0.00 0.00 0.00 36 1017.9
20260503233425 55 0.0 0.0 0.00 0.00 0.00 35 1017.8
20260503233342 55 0.0 0.0 0.00 0.00 0.00 35 1017.9
20260503233223 55 0.0 0.9 0.00 0.00 0.00 34 1017.8
20260503233122 55 270 1.7 2.6 0.00 0.00 0.00 33 1017.8
20260503233022 55 270 0.9 1.7 0.00 0.00 0.00 34 1017.8
20260503232924 55 270 0.9 0.9 0.00 0.00 0.00 34 1017.8
20260503232822 55 270 0.9 0.9 0.00 0.00 0.00 35 1017.8
20260503232743 55 0.0 0.9 0.00 0.00 0.00 34 1017.8
20260503232622 55 270 0.9 0.9 0.00 0.00 0.00 34 1017.8
20260503232522 56 270 0.9 1.7 0.00 0.00 0.00 34 1017.8
20260503232422 56 270 0.9 0.9 0.00 0.00 0.00 33 1017.7
20260503232322 56 0.0 1.7 0.00 0.00 0.00 33 1017.7
20260503232222 56 0.0 0.9 0.00 0.00 0.00 33 1017.8
20260503232122 56 293 1.7 3.5 0.00 0.00 0.00 32 1017.7
20260503232022 56 293 1.7 3.5 0.00 0.00 0.00 33 1017.7
20260503231942 56 293 0.9 1.7 0.00 0.00 0.00 33 1017.7
20260503231824 56 0.0 0.0 0.00 0.00 0.00 33 1017.7
20260503231723 56 293 0.9 0.9 0.00 0.00 0.00 33 1017.7
20260503231622 56 293 1.7 3.5 0.00 0.00 0.00 32 1017.7
20260503231522 56 293 2.6 4.3 0.00 0.00 0.00 32 1017.7
20260503231422 56 270 4.3 7.0 0.00 0.00 0.00 32 1017.6
20260503231322 56 293 4.3 7.0 0.00 0.00 0.00 31 1017.7
20260503231222 56 315 3.5 4.3 0.00 0.00 0.00 32 1017.6
20260503231203 56 270 1.7 3.5 0.00 0.00 0.00 32 1017.6
20260503231042 56 270 1.7 3.5 0.00 0.00 0.00 33 1017.7
20260503230923 56 315 3.5 4.3 0.00 0.00 0.00 32 1017.7
20260503230822 56 315 2.6 4.3 0.00 0.00 0.00 32 1017.7
20260503230722 57 338 2.6 4.3 0.00 0.00 0.00 32 1017.7
20260503230622 57 338 4.3 7.0 0.00 0.00 0.00 31 1017.6
20260503230522 57 0 1.7 3.5 0.00 0.00 0.00 32 1017.7
20260503230442 57 338 1.7 2.6 0.00 0.00 0.00 32 1017.6
20260503230322 57 293 2.6 3.5 0.00 0.00 0.00 31 1017.6
20260503230222 57 293 2.6 4.3 0.00 0.00 0.00 31 1017.6
20260503230122 57 315 2.6 3.5 0.00 0.00 0.00 31 1017.6
20260503230023 57 315 3.5 6.1 0.00 0.00 0.00 31 1017.6
20260503225922 57 293 2.6 3.5 0.00 0.00 0.00 32 1017.6
20260503225822 57 293 0.9 2.6 0.00 0.00 0.00 32 1017.6
20260503225722 57 315 0.9 2.6 0.00 0.00 0.00 31 1017.6
20260503225622 57 270 5.2 7.0 0.00 0.00 0.00 31 1017.5
20260503225522 57 338 5.2 7.0 0.00 0.00 0.00 30 1017.6
20260503225422 57 315 4.3 7.0 0.00 0.00 0.00 30 1017.5
20260503225322 57 293 5.2 7.8 0.00 0.00 0.00 31 1017.6
20260503225242 57 270 6.1 9.6 0.00 0.00 0.00 31 1017.6
20260503225124 57 338 2.6 4.3 0.00 0.00 0.00 32 1017.6
20260503225022 57 315 3.5 6.1 0.00 0.00 0.00 31 1017.5
20260503224923 57 293 2.6 3.5 0.00 0.00 0.00 31 1017.6
20260503224844 57 0 2.6 4.3 0.00 0.00 0.00 31 1017.6
20260503224722 57 0 1.7 3.5 0.00 0.00 0.00 31 1017.6
20260503224622 57 315 3.5 5.2 0.00 0.00 0.00 31 1017.5
20260503224522 58 315 4.3 7.8 0.00 0.00 0.00 31 1017.5
20260503224422 58 293 4.3 7.0 0.00 0.00 0.00 30 1017.5
20260503224344 58 293 3.5 6.1 0.00 0.00 0.00 30 1017.5
20260503224222 58 270 3.5 7.0 0.00 0.00 0.00 31 1017.5
20260503224124 58 315 2.6 5.2 0.00 0.00 0.00 31 1017.5
20260503224024 58 315 0.9 2.6 0.00 0.00 0.00 32 1017.5
20260503223922 58 315 1.7 3.5 0.00 0.00 0.00 32 1017.5
20260503223842 58 315 2.6 4.3 0.00 0.00 0.00 31 1017.5
20260503223722 58 293 3.5 4.3 0.00 0.00 0.00 31 1017.5
20260503223622 57 293 3.5 7.0 0.00 0.00 0.00 31 1017.5
20260503223522 57 270 2.6 5.2 0.00 0.00 0.00 32 1017.4
20260503223443 57 270 1.7 2.6 0.00 0.00 0.00 31 1017.5
20260503223322 57 315 2.6 4.3 0.00 0.00 0.00 31 1017.4
20260503223222 57 315 4.3 7.0 0.00 0.00 0.00 32 1017.5
20260503223123 57 293 4.3 7.0 0.00 0.00 0.00 31 1017.5
20260503223022 57 338 2.6 3.5 0.00 0.00 0.00 33 1017.5
20260503222922 57 293 3.5 7.8 0.00 0.00 0.00 32 1017.5
20260503222822 57 315 2.6 5.2 0.00 0.00 0.00 33 1017.5
20260503222722 57 338 1.7 5.2 0.00 0.00 0.00 33 1017.4
20260503222622 57 270 3.5 5.2 0.00 0.00 0.00 34 1017.4
20260503222522 57 315 1.7 6.1 0.00 0.00 0.00 33 1017.4
20260503222422 57 315 1.7 2.6 0.00 0.00 0.00 33 1017.4
20260503222322 57 293 1.7 2.6 0.00 0.00 0.00 33 1017.4
20260503222221 57 293 5.2 7.0 0.00 0.00 0.00 32 1017.5
20260503222122 57 270 2.6 5.2 0.00 0.00 0.00 33 1017.4
20260503222043 57 270 2.6 3.5 0.00 0.00 0.00 32 1017.3
20260503221922 57 293 3.5 6.1 0.00 0.00 0.00 32 1017.4
20260503221822 57 315 3.5 6.1 0.00 0.00 0.00 32 1017.4
20260503221722 57 315 4.3 7.8 0.00 0.00 0.00 33 1017.4
20260503221622 57 293 7.0 9.6 0.00 0.00 0.00 32 1017.4
20260503221522 57 270 5.2 8.7 0.00 0.00 0.00 32 1017.3
20260503221422 57 293 3.5 6.1 0.00 0.00 0.00 33 1017.3
20260503221322 57 293 3.5 4.3 0.00 0.00 0.00 33 1017.3
20260503221222 57 315 5.2 7.8 0.00 0.00 0.00 32 1017.2
20260503221122 57 0 7.0 13.0 0.00 0.00 0.00 32 1017.3
20260503221022 57 0 7.0 10.4 0.00 0.00 0.00 31 1017.4
20260503220922 57 270 7.0 10.4 0.00 0.00 0.00 32 1017.3
20260503220842 57 315 7.8 12.2 0.00 0.00 0.00 33 1017.3
20260503220722 57 203 5.2 12.2 0.00 0.00 0.00 33 1017.3
20260503220622 57 270 2.6 5.2 0.00 0.00 0.00 33 1017.3
20260503220603 57 293 5.2 8.7 0.00 0.00 0.00 33 1017.3
20260503220422 57 23 2.6 6.1 0.00 0.00 0.00 34 1017.3
20260503220322 57 0 3.5 4.3 0.00 0.00 0.00 33 1017.4
20260503220222 57 0 5.2 7.8 0.00 0.00 0.00 32 1017.4
20260503220142 57 315 4.3 7.8 0.00 0.00 0.00 33 1017.3
20260503220022 57 293 6.1 7.8 0.00 0.00 0.00 33 1017.4
20260503215922 57 293 5.2 7.8 0.00 0.00 0.00 32 1017.4
20260503215822 57 293 6.1 8.7 0.00 0.00 0.00 33 1017.4
20260503215743 57 270 4.3 9.6 0.00 0.00 0.00 33 1017.5
20260503215622 57 293 4.3 8.7 0.00 0.00 0.00 34 1017.4
20260503215522 57 315 4.3 7.0 0.00 0.00 0.00 33 1017.5
20260503215423 57 315 5.2 11.3 0.00 0.00 0.00 34 1017.5
20260503215323 57 293 4.3 9.6 0.00 0.00 0.00 34 1017.4
20260503215223 57 338 4.3 7.0 0.00 0.00 0.00 35 1017.4
20260503215125 57 315 4.3 5.2 0.00 0.00 0.00 35 1017.4
20260503215025 57 23 4.3 7.0 0.00 0.00 0.00 34 1017.4
20260503214922 57 338 2.6 3.5 0.00 0.00 0.00 34 1017.5
20260503214824 57 23 2.6 7.0 0.00 0.00 0.00 34 1017.5
20260503214723 57 293 3.5 6.1 0.00 0.00 0.00 35 1017.5
20260503214622 57 293 4.3 7.0 0.00 0.00 0.00 37 1017.5
20260503214524 57 338 2.6 5.2 0.00 0.00 0.00 34 1017.4
20260503214422 57 0 3.5 5.2 0.00 0.00 0.00 35 1017.4
20260503214322 57 270 2.6 4.3 0.00 0.00 0.00 34 1017.4
20260503214222 57 293 2.6 3.5 0.00 0.00 0.00 37 1017.4
20260503214122 57 270 1.7 3.5 0.00 0.00 0.00 35 1017.4
20260503214102 57 0 4.3 7.8 0.00 0.00 0.00 34 1017.4
20260503213922 57 293 3.5 6.1 0.00 0.00 0.00 34 1017.4
20260503213822 57 338 5.2 8.7 0.00 0.00 0.00 35 1017.4
20260503213722 57 338 6.1 7.8 0.00 0.00 0.00 34 1017.3
20260503213622 57 293 7.0 9.6 0.00 0.00 0.00 35 1017.3
20260503213522 57 0 3.5 6.1 0.00 0.00 0.00 35 1017.3
20260503213422 57 45 4.3 7.0 0.00 0.00 0.00 35 1017.3
20260503213322 57 315 3.5 4.3 0.00 0.00 0.00 36 1017.3
20260503213222 56 315 4.3 6.1 0.00 0.00 0.00 34 1017.2
20260503213122 56 293 3.5 4.3 0.00 0.00 0.00 34 1017.3
20260503213022 56 338 4.3 7.0 0.00 0.00 0.00 34 1017.3
20260503212943 56 315 7.0 10.4 0.00 0.00 0.00 34 1017.3
20260503212822 56 293 7.0 10.4 0.00 0.00 0.00 34 1017.3
20260503212722 56 315 2.6 4.3 0.00 0.00 0.00 36 1017.3
20260503212623 56 315 6.1 8.7 0.00 0.00 0.00 34 1017.3
20260503212522 56 315 6.1 9.6 0.00 0.00 0.00 34 1017.3
20260503212423 56 293 8.7 13.9 0.00 0.00 0.00 35 1017.3
20260503212322 56 0 6.1 11.3 0.00 0.00 0.00 35 1017.3
20260503212222 56 338 6.1 9.6 0.00 0.00 0.00 35 1017.3
20260503212122 56 338 7.8 11.3 0.00 0.00 0.00 34 1017.3
20260503212042 56 338 7.0 11.3 0.00 0.00 0.00 34 1017.3
20260503211924 56 45 4.3 11.3 0.00 0.00 0.00 36 1017.4
20260503211822 56 270 3.5 7.8 0.00 0.00 0.00 35 1017.4
20260503211722 56 315 4.3 7.8 0.00 0.00 0.00 35 1017.4
20260503211621 56 338 6.1 8.7 0.00 0.00 0.00 34 1017.5
20260503211521 56 293 6.1 11.3 0.00 0.00 0.00 34 1017.4
20260503211422 56 23 4.3 9.6 0.00 0.00 0.00 34 1017.4
20260503211322 56 0 8.7 13.9 0.00 0.00 0.00 34 1017.4
20260503211221 56 0 8.7 13.9 0.00 0.00 0.00 34 1017.4
20260503211122 57 315 6.1 12.2 0.00 0.00 0.00 35 1017.4
20260503211022 57 0 6.1 10.4 0.00 0.00 0.00 34 1017.4
20260503210942 57 338 8.7 13.9 0.00 0.00 0.00 35 1017.3
20260503210822 57 0 8.7 15.6 0.00 0.00 0.00 35 1017.4
20260503210722 57 315 7.0 12.2 0.00 0.00 0.00 35 1017.4
20260503210622 57 315 7.0 10.4 0.00 0.00 0.00 35 1017.4
20260503210522 57 293 4.3 7.8 0.00 0.00 0.00 36 1017.4
20260503210421 57 270 2.6 4.3 0.00 0.00 0.00 37 1017.4
20260503210321 56 270 3.5 7.8 0.00 0.00 0.00 35 1017.4
20260503210222 56 203 0.9 3.5 0.00 0.00 0.00 37 1017.4
20260503210122 56 293 3.5 7.0 0.00 0.00 0.00 36 1017.3
20260503210023 56 293 4.3 7.0 0.00 0.00 0.00 35 1017.4
20260503205942 56 270 3.5 5.2 0.00 0.00 0.00 36 1017.4
20260503205822 56 315 4.3 5.2 0.00 0.00 0.00 37 1017.4
20260503205722 56 270 5.2 9.6 0.00 0.00 0.00 35 1017.4
20260503205623 56 338 11.3 17.4 0.00 0.00 0.00 34 1017.4
20260503205523 56 293 8.7 13.0 0.00 0.00 0.00 36 1017.5
20260503205425 56 293 7.8 12.2 0.00 0.00 0.00 35 1017.2
20260503205342 56 315 5.2 8.7 0.00 0.00 0.00 37 1017.4
20260503205224 56 270 8.7 15.6 0.00 0.00 0.00 34 1017.4
20260503205122 56 248 4.3 11.3 0.00 0.00 0.00 37 1017.4
20260503205021 56 315 6.1 10.4 0.00 0.00 0.00 37 1017.4
20260503204921 56 338 10.4 15.6 0.00 0.00 0.00 35 1017.4
20260503204821 56 270 8.7 16.5 0.00 0.00 0.00 38 1017.4
20260503204722 56 0 10.4 17.4 0.00 0.00 0.00 34 1017.4
20260503204622 56 270 9.6 14.8 0.00 0.00 0.00 35 1017.4
20260503204521 56 315 5.2 7.0 0.00 0.00 0.00 37 1017.3
20260503204421 56 338 6.1 9.6 0.00 0.00 0.00 35 1017.4
20260503204342 56 315 5.2 11.3 0.00 0.00 0.00 36 1017.3
20260503204222 56 293 7.8 13.0 0.00 0.00 0.00 35 1017.3
20260503204122 56 315 8.7 12.2 0.00 0.00 0.00 36 1017.4
20260503204022 56 315 9.6 13.9 0.00 0.00 0.00 34 1017.2
20260503203923 56 270 6.1 10.4 0.00 0.00 0.00 35 1017.3
20260503203822 56 338 8.7 11.3 0.00 0.00 0.00 35 1017.3
20260503203722 56 338 5.2 12.2 0.00 0.00 0.00 37 1017.3
20260503203642 56 315 8.7 18.2 0.00 0.00 0.00 35 1017.3
20260503203522 56 293 6.1 9.6 0.00 0.00 0.00 36 1017.4
20260503203422 56 293 7.0 13.0 0.00 0.00 0.00 36 1017.3
20260503203325 56 338 4.3 7.0 0.00 0.00 0.00 36 1017.2
20260503203221 56 315 7.0 13.0 0.00 0.00 0.00 37 1017.2
20260503203121 56 338 7.0 9.6 0.00 0.00 0.00 35 1017.2
20260503203022 56 338 8.7 13.9 0.00 0.00 0.00 36 1017.4
20260503202922 56 270 7.0 12.2 0.00 0.00 0.00 36 1017.2
20260503202822 56 338 7.8 13.9 0.00 0.00 0.00 37 1017.2
20260503202742 56 0 8.7 10.4 0.00 0.00 0.00 36 1017.3
20260503202622 56 293 7.8 11.3 0.00 0.00 0.00 37 1017.3
20260503202523 56 315 9.6 13.0 0.00 0.00 0.00 34 1017.3
20260503202421 56 338 8.7 14.8 0.00 0.00 0.00 37 1017.4
20260503202321 56 315 6.1 10.4 0.00 0.00 0.00 37 1017.2
20260503202222 56 315 7.0 13.0 0.00 0.00 0.00 37 1017.3
20260503202121 56 270 7.0 9.6 0.00 0.00 0.00 37 1017.4
20260503202022 56 315 5.2 9.6 0.00 0.00 0.00 39 1017.4
20260503201922 56 293 6.1 11.3 0.00 0.00 0.00 38 1017.3
20260503201822 56 338 5.2 8.7 0.00 0.00 0.00 36 1017.4
20260503201722 56 338 8.7 11.3 0.00 0.00 0.00 36 1017.3
20260503201642 56 338 5.2 13.0 0.00 0.00 0.00 38 1017.3
20260503201521 56 315 5.2 8.7 0.00 0.00 0.00 37 1017.3
20260503201422 56 315 7.0 10.4 0.00 0.00 0.00 37 1017.4
20260503201322 56 293 7.8 10.4 0.00 0.00 0.00 35 1017.4
20260503201221 56 315 5.2 7.8 0.00 0.00 0.00 38 1017.3
20260503201142 56 0 7.8 12.2 0.00 0.00 0.00 39 1017.3
20260503201022 56 315 4.3 8.7 0.00 0.00 0.00 37 1017.3
20260503200943 56 0 7.0 12.2 0.00 0.00 0.00 37 1017.3
20260503200823 56 0 6.1 10.4 0.00 0.00 0.00 38 1017.4
20260503200742 55 338 5.2 9.6 0.00 0.00 0.00 36 1017.3
20260503200623 56 270 5.2 8.7 0.00 0.00 0.00 39 1017.4
20260503200524 55 293 3.5 8.7 0.00 0.00 0.00 38 1017.4
20260503200421 55 315 5.2 9.6 0.00 0.00 0.00 39 1017.4
20260503200324 55 270 9.6 17.4 0.00 0.00 0.00 38 1017.4
20260503200222 55 0 7.0 13.9 0.00 0.00 0.00 37 1017.5
20260503200122 55 270 5.2 8.7 0.00 0.00 0.00 36 1017.5
20260503200022 55 315 4.3 8.7 0.00 0.00 0.00 38 1017.5
20260503195922 55 293 9.6 15.6 0.00 0.00 0.00 36 1017.5
20260503195822 55 248 6.1 11.3 0.00 0.00 0.00 38 1017.5
20260503195722 55 270 6.1 9.6 0.00 0.00 0.00 38 1017.5
20260503195642 55 0 7.0 8.7 0.00 0.00 0.00 36 1017.5
20260503195521 55 0 10.4 18.2 0.00 0.00 0.00 38 1017.5
20260503195421 55 338 7.0 10.4 0.00 0.00 0.00 36 1017.4
20260503195321 55 338 9.6 13.0 0.00 0.00 0.00 37 1017.5
20260503195221 55 0 6.1 8.7 0.00 0.00 0.00 38 1017.6
20260503195122 55 270 5.2 10.4 0.00 0.00 0.00 39 1017.5
20260503195022 55 315 7.8 13.0 0.00 0.00 0.00 39 1017.5
20260503194922 55 293 6.1 11.3 0.00 0.00 0.00 38 1017.5
20260503194842 55 338 6.1 8.7 0.00 0.00 0.00 38 1017.4
20260503194742 55 293 7.8 12.2 0.00 0.00 0.00 38 1017.4
20260503194622 55 293 11.3 17.4 0.00 0.00 0.00 36 1017.4
20260503194521 55 293 9.6 14.8 0.00 0.00 0.00 36 1017.4
20260503194422 55 338 8.7 13.0 0.00 0.00 0.00 37 1017.5
20260503194321 55 315 9.6 13.9 0.00 0.00 0.00 36 1017.6
20260503194222 55 270 6.1 8.7 0.00 0.00 0.00 39 1017.5
20260503194141 55 315 8.7 12.2 0.00 0.00 0.00 37 1017.5
20260503194022 55 270 9.6 12.2 0.00 0.00 0.00 37 1017.5
20260503193922 55 315 5.2 8.7 0.00 0.00 0.00 37 1017.4
20260503193842 55 315 6.1 9.6 0.00 0.00 0.00 38 1017.5
20260503193721 55 270 7.8 11.3 0.00 0.00 0.00 40 1017.4
20260503193622 55 293 7.8 14.8 0.00 0.00 0.00 37 1017.4
20260503193522 54 315 12.2 18.2 0.00 0.00 0.00 37 1017.6
20260503193421 54 0 6.1 12.2 0.00 0.00 0.00 37 1017.5
20260503193321 54 338 6.1 11.3 0.00 0.00 0.00 38 1017.4
20260503193222 54 338 5.2 8.7 0.00 0.00 0.00 38 1017.6
20260503193121 54 270 7.8 12.2 0.00 0.00 0.00 36 1017.5
20260503193021 54 315 12.2 15.6 0.00 0.00 0.00 37 1017.5
20260503192922 55 338 8.7 13.9 0.00 0.00 0.00 37 1017.5
20260503192822 55 315 10.4 15.6 0.00 0.00 0.00 36 1017.5
20260503192721 55 270 7.0 13.0 0.00 0.00 0.00 37 1017.5
20260503192622 55 270 5.2 7.8 0.00 0.00 0.00 37 1017.6
20260503192522 55 270 3.5 8.7 0.00 0.00 0.00 39 1017.5
20260503192441 55 338 7.8 15.6 0.00 0.00 0.00 40 1017.5
20260503192321 56 270 9.6 14.8 0.00 0.00 0.00 38 1017.6
20260503192222 56 293 7.8 10.4 0.00 0.00 0.00 36 1017.5
20260503192121 56 293 7.8 17.4 0.00 0.00 0.00 38 1017.5
20260503192021 56 315 7.0 13.9 0.00 0.00 0.00 36 1017.5
20260503191921 56 338 8.7 15.6 0.00 0.00 0.00 37 1017.5
20260503191821 56 293 9.6 14.8 0.00 0.00 0.00 36 1017.4
20260503191741 55 270 7.8 11.3 0.00 0.00 0.00 40 1017.5
20260503191621 55 293 5.2 10.4 0.00 0.00 0.00 36 1017.5
20260503191542 55 270 9.6 13.9 0.00 0.00 0.00 38 1017.5
20260503191422 55 270 6.1 12.2 0.00 0.00 0.00 39 1017.5
20260503191322 55 270 10.4 14.8 0.00 0.00 0.00 37 1017.5
20260503191221 55 315 11.3 16.5 0.00 0.00 0.00 36 1017.4
20260503191122 55 293 10.4 14.8 0.00 0.00 0.00 36 1017.5
20260503191024 55 270 10.4 19.1 0.00 0.00 0.00 40 1017.5
20260503190922 55 293 7.8 11.3 0.00 0.00 0.00 37 1017.4
20260503190821 55 270 8.7 13.9 0.00 0.00 0.00 37 1017.5
20260503190722 55 270 8.7 12.2 0.00 0.00 0.00 40 1017.6
20260503190623 55 248 7.8 10.4 0.00 0.00 0.00 39 1017.4
20260503190542 55 248 7.8 11.3 0.00 0.00 0.00 38 1017.5
20260503190423 55 315 8.7 15.6 0.00 0.00 0.00 37 1017.5
20260503190324 55 315 13.0 23.5 0.00 0.00 0.00 36 1017.5
20260503190222 55 293 13.0 22.6 0.00 0.00 0.00 37 1017.4
20260503190121 55 293 9.6 13.9 0.00 0.00 0.00 36 1017.4
20260503190042 55 315 10.4 16.5 0.00 0.00 0.00 36 1017.4
20260503185922 55 315 14.8 20.0 0.00 0.00 0.00 37 1017.3
20260503185822 56 338 8.7 12.2 0.00 0.00 0.00 37 1017.4
20260503185722 56 338 8.7 13.0 0.00 0.00 0.00 36 1017.4
20260503185621 56 338 4.3 7.0 0.00 0.00 0.00 40 1017.4
20260503185522 56 270 5.2 7.8 0.00 0.00 0.00 41 1017.4
20260503185442 56 338 8.7 13.0 0.00 0.00 0.00 37 1017.4
20260503185322 56 293 8.7 12.2 0.00 0.00 0.00 40 1017.4
20260503185222 56 293 5.2 8.7 0.00 0.00 0.00 38 1017.4
20260503185121 56 315 5.2 9.6 0.00 0.00 0.00 36 1017.3
20260503185021 56 248 7.0 12.2 0.00 0.00 0.00 37 1017.4
20260503184922 56 248 6.1 13.0 0.00 0.00 0.00 37 1017.4
20260503184823 56 270 9.6 13.0 0.00 0.00 0.00 36 1017.5
20260503184723 56 270 6.1 8.7 0.00 0.00 0.00 41 1017.4
20260503184622 56 293 7.8 13.0 0.00 0.00 0.00 40 1017.3
20260503184522 56 338 8.7 12.2 0.00 0.00 0.00 38 1017.4
20260503184422 56 315 9.6 15.6 0.00 0.00 0.00 37 1017.5
20260503184321 56 0 6.1 9.6 0.00 0.00 0.00 40 1017.4
20260503184302 56 315 5.2 8.7 0.00 0.00 0.00 41 1017.4
20260503184121 56 293 7.0 12.2 0.00 0.00 0.00 36 1017.4
20260503184021 56 270 10.4 15.6 0.00 0.00 0.00 38 1017.4
20260503183921 56 315 7.8 11.3 0.00 0.00 0.00 37 1017.5
20260503183821 56 338 7.8 13.0 0.00 0.00 0.00 36 1017.5
20260503183721 55 225 5.2 7.8 0.00 0.00 0.00 39 1017.4
20260503183621 55 0 7.8 11.3 0.00 0.00 0.00 37 1017.4
20260503183522 55 270 7.0 10.4 0.00 0.00 0.00 39 1017.3
20260503183442 55 315 5.2 7.8 0.00 0.00 0.00 37 1017.4
20260503183321 55 293 6.1 10.4 0.00 0.00 0.00 38 1017.4
20260503183223 55 293 5.2 7.8 0.00 0.00 0.00 38 1017.3
20260503183123 55 315 10.4 16.5 0.00 0.00 0.00 36 1017.3
20260503183023 55 225 5.2 10.4 0.00 0.00 0.00 36 1017.4
20260503182941 55 338 7.0 13.0 0.00 0.00 0.00 38 1017.4
20260503182841 55 0 4.3 12.2 0.00 0.00 0.00 39 1017.4
20260503182721 55 315 2.6 6.1 0.00 0.00 0.00 38 1017.4
20260503182621 55 315 7.8 12.2 0.00 0.00 0.00 38 1017.4
20260503182521 54 248 7.8 12.2 0.00 0.00 0.00 37 1017.4
20260503182423 55 315 4.3 7.0 0.00 0.00 0.00 38 1017.4
20260503182321 55 315 7.8 13.0 0.00 0.00 0.00 36 1017.4
20260503182224 55 0 7.0 12.2 0.00 0.00 0.00 38 1017.5
20260503182143 55 315 9.6 19.1 0.00 0.00 0.00 36 1017.4
20260503182021 55 315 7.0 9.6 0.00 0.00 0.00 36 1017.5
20260503181924 55 315 6.1 10.4 0.00 0.00 0.00 37 1017.5
20260503181821 55 338 11.3 16.5 0.00 0.00 0.00 36 1017.6
20260503181721 55 315 10.4 21.7 0.00 0.00 0.00 35 1017.5
20260503181641 55 315 10.4 17.4 0.00 0.00 0.00 41 1017.4
20260503181521 55 293 7.0 13.0 0.00 0.00 0.00 36 1017.5
20260503181442 55 315 8.7 13.9 0.00 0.00 0.00 37 1017.3
20260503181322 55 293 6.1 10.4 0.00 0.00 0.00 41 1017.4
20260503181222 55 338 6.1 8.7 0.00 0.00 0.00 39 1017.5
20260503181201 55 293 5.2 10.4 0.00 0.00 0.00 41 1017.4
20260503181042 54 315 5.2 9.6 0.00 0.00 0.00 39 1017.3
20260503180922 54 293 6.1 8.7 0.00 0.00 0.00 41 1017.4
20260503180821 54 270 3.5 6.1 0.00 0.00 0.00 40 1017.4
20260503180743 54 338 6.1 8.7 0.00 0.00 0.00 37 1017.4
20260503180722 54 158 5.2 10.4 0.00 0.00 0.00 42 1017.2
20260503180521 54 90 1.7 3.5 0.00 0.00 0.00 41 1017.3
20260503180421 54 293 2.6 5.2 0.00 0.00 0.00 39 1017.4
20260503180321 54 315 3.5 5.2 0.00 0.00 0.00 39 1017.3
20260503180222 54 270 6.1 11.3 0.00 0.00 0.00 37 1017.3
20260503180122 54 338 4.3 7.8 0.00 0.00 0.00 38 1017.4
20260503180023 54 293 5.2 8.7 0.00 0.00 0.00 40 1017.5
20260503175921 54 23 4.3 7.8 0.00 0.00 0.00 41 1017.4
20260503175841 54 23 2.6 6.1 0.00 0.00 0.00 44 1017.4
20260503175722 54 225 1.7 5.2 0.00 0.00 0.00 42 1017.3
20260503175623 53 225 5.2 8.7 0.00 0.00 0.00 43 1017.5
20260503175521 53 315 5.2 7.8 0.00 0.00 0.00 40 1017.4